Regional Weather Roundup
Issued by NWS

Home | Current Version | Previous Version | Text Only | Print | Product List | Glossary Off
Versions: 1 2 3 4 5 6 7 8 9 10 11 12 13 14 15 16 17 18 19 20 21 22 23 24 25 26 27 28 29 30 31 32 33 34 35 36 37 38 39 40 41 42 43 44 45 46 47 48 49 50

990
ASUS43 KBIS 162002
RWRND

NORTH DAKOTA REGIONAL WEATHER ROUNDUP
NATIONAL WEATHER SERVICE BISMARCK ND
200 PM CST SAT DEC 16 2017

NOTE: "FAIR" INDICATES FEW OR NO CLOUDS BELOW 12,000 FEET WITH NO
SIGNIFICANT WEATHER AND/OR OBSTRUCTIONS TO VISIBILITY.


NDZ001>003-009>011-017-162100-
NORTHWEST NORTH DAKOTA

CITY           SKY/WX    TMP DP  RH WIND       PRES   REMARKS
WILLISTON      SUNNY     34  23  64 W12       29.95S
MINOT          SUNNY     41  27  57 W10       29.89S
MINOT AFB      SUNNY     38  26  61 W10       29.88S
$$

NDZ018>021-031>035-040>046-162100-
SOUTHWEST NORTH DAKOTA

CITY           SKY/WX    TMP DP  RH WIND       PRES   REMARKS
BISMARCK       CLOUDY    40  32  73 NW10      29.94S
DICKINSON      CLOUDY    34  24  67 NW12      29.92S
GARRISON         N/A     37  29  72 W10       29.91R
HETTINGER ARPT CLOUDY    35  24  64 NW9       29.96R
$$

NDZ004>008-012>016-024-026-027-054-162100-
NORTHEAST NORTH DAKOTA

CITY           SKY/WX    TMP DP  RH WIND       PRES   REMARKS
GRAND FORKS    PTSUNNY   30  26  85 NW7       29.90R
GRND FRKS AFB  MOSUNNY   31  25  77 NW10      29.89R
DEVILS LAKE    MOSUNNY   31  26  82 NW7       29.90R
$$

NDZ022-023-025-028>030-036>039-047>053-162100-
SOUTHEAST NORTH DAKOTA

CITY           SKY/WX    TMP DP  RH WIND       PRES   REMARKS
FARGO          CLOUDY    32  27  81 NW6       29.92R
JAMESTOWN      CLOUDY    38  31  76 N16       29.90R
$$





USA.gov is the U.S. government's official web portal to all federal, state and local government web resources and services.